DW1684 Weather Reports


time (UTC)temp
C
wind
direction
speed
KPH
gust
KPH
rain 1hr
cm
rain 24hr
cm
rain mn
cm
humidity
%
barometer
mb
20260505010332 20 116 3.2 12.9 0.00 0.00 0.00 65 1001.2
20260505005822 21 292 3.2 12.9 0.00 0.00 0.00 65 1001.1
20260505005316 21 237 4.8 12.9 0.00 0.00 0.00 65 1001.1
20260505004830 21 258 4.8 12.9 0.00 0.00 0.00 65 1001.2
20260505004325 21 248 4.8 14.5 0.00 0.00 0.00 65 1001.2
20260505003820 21 144 4.8 14.5 0.00 0.00 0.00 66 1001.2
20260505003331 21 52 4.8 14.5 0.00 0.00 0.00 66 1001.3
20260505002825 21 259 4.8 14.5 0.00 0.00 0.00 66 1001.2
20260505002319 21 227 3.2 17.7 0.00 0.00 0.00 66 1001.1
20260505001813 21 247 6.4 17.7 0.00 0.00 0.00 65 1001.2
20260505001327 21 155 8.0 17.7 0.00 0.00 0.00 64 1001.2
20260505000822 21 279 6.4 17.7 0.00 0.00 0.00 64 1001.2
20260505000319 21 212 8.0 24.1 0.00 0.00 0.00 64 1001.3
20260504235813 21 164 8.0 24.1 0.00 0.00 0.00 64 1001.3
20260504235347 21 249 11.3 22.5 0.00 0.00 0.00 64 1001.2
20260504234817 21 253 8.0 17.7 0.00 0.00 0.00 65 1001.2
20260504234328 21 248 8.0 16.1 0.00 0.00 0.00 64 1001.2
20260504233844 21 239 8.0 22.5 0.00 0.00 0.00 64 1001.2
20260504233319 21 246 6.4 22.5 0.00 0.00 0.00 64 1001.2
20260504232833 21 90 4.8 17.7 0.00 0.00 0.00 64 1001.2
20260504232328 22 120 6.4 20.9 0.00 0.00 0.00 62 1001.2
20260504231822 22 287 8.0 24.1 0.00 0.00 0.00 63 1001.3
20260504231335 22 218 9.7 24.1 0.00 0.00 0.00 61 1001.3
20260504230828 22 239 4.8 27.4 0.00 0.00 0.00 61 1001.3
20260504230319 22 229 16.1 32.2 0.00 0.00 0.00 60 1001.4
20260504225832 22 206 9.7 32.2 0.00 0.00 0.00 60 1001.6
20260504225323 22 243 12.9 32.2 0.00 0.00 0.00 58 1001.6
20260504224814 22 208 11.3 33.8 0.00 0.00 0.00 58 1001.6
20260504224328 22 210 12.9 33.8 0.00 0.00 0.00 58 1001.8
20260504223828 22 285 12.9 33.8 0.00 0.00 0.00 57 1001.8
20260504223318 23 229 12.9 33.8 0.00 0.00 0.00 56 1001.8
20260504222850 23 257 11.3 30.6 0.00 0.00 0.00 55 1002.0
20260504222323 23 162 14.5 33.8 0.00 0.00 0.00 54 1002.0
20260504221834 23 222 17.7 33.8 0.00 0.00 0.00 54 1001.9
20260504221327 23 289 11.3 30.6 0.00 0.00 0.00 55 1001.8
20260504220820 23 220 14.5 33.8 0.00 0.00 0.00 53 1001.8
20260504220313 23 278 16.1 33.8 0.00 0.00 0.00 53 1001.8
20260504215827 23 258 16.1 35.4 0.00 0.00 0.00 53 1001.8
20260504215346 23 206 14.5 35.4 0.00 0.00 0.00 53 1001.8
20260504214819 23 266 16.1 40.2 0.00 0.00 0.00 53 1001.8
20260504214333 23 224 14.5 40.2 0.00 0.00 0.00 53 1001.9
20260504213847 23 339 17.7 45.1 0.00 0.00 0.00 52 1001.7
20260504213322 24 276 19.3 45.1 0.00 0.00 0.00 52 1001.8
20260504212816 24 285 16.1 30.6 0.00 0.00 0.00 52 1001.6
20260504212330 25 257 11.3 29.0 0.00 0.00 0.00 52 1001.6
20260504211841 24 240 14.5 29.0 0.00 0.00 0.00 52 1001.6
20260504211331 24 233 12.9 37.0 0.00 0.00 0.00 53 1001.6
20260504210848 24 235 14.5 37.0 0.00 0.00 0.00 52 1001.5
20260504210321 24 259 11.3 30.6 0.00 0.00 0.00 53 1001.5
20260504205832 24 307 17.7 29.0 0.00 0.00 0.00 52 1001.4
20260504205322 24 194 14.5 29.0 0.00 0.00 0.00 52 1001.5
20260504204816 24 235 19.3 32.2 0.00 0.00 0.00 51 1001.4
20260504204332 25 222 11.3 32.2 0.00 0.00 0.00 52 1001.5
20260504203828 25 250 12.9 32.2 0.00 0.00 0.00 52 1001.5
20260504203322 24 234 14.5 32.2 0.00 0.00 0.00 54 1001.5
20260504202837 24 236 12.9 27.4 0.00 0.00 0.00 56 1001.5
20260504202333 24 285 12.9 27.4 0.00 0.00 0.00 55 1001.6
20260504201844 24 218 14.5 32.2 0.00 0.00 0.00 54 1001.7
20260504201318 24 263 14.5 32.2 0.00 0.00 0.00 55 1001.7
20260504200831 24 225 9.7 30.6 0.00 0.00 0.00 55 1001.7
20260504200341 25 253 12.9 30.6 0.00 0.00 0.00 55 1001.6
20260504195831 24 255 9.7 24.1 0.00 0.00 0.00 55 1001.8
20260504195325 25 230 9.7 30.6 0.00 0.00 0.00 56 1001.7
20260504194840 24 245 12.9 30.6 0.00 0.00 0.00 55 1001.8
20260504194332 24 243 9.7 32.2 0.00 0.00 0.00 56 1002.0
20260504193824 24 259 11.3 32.2 0.00 0.00 0.00 56 1002.1
20260504193335 24 282 16.1 32.2 0.00 0.00 0.00 55 1002.1
20260504192826 24 172 11.3 22.5 0.00 0.00 0.00 57 1002.1
20260504192321 24 237 6.4 22.5 0.00 0.00 0.00 58 1002.2
20260504191832 23 243 11.3 24.1 0.00 0.00 0.00 58 1002.2
20260504191343 23 221 8.0 24.1 0.00 0.00 0.00 60 1002.4
20260504190816 23 35 12.9 24.1 0.00 0.00 0.00 57 1002.4
20260504190313 23 171 11.3 24.1 0.00 0.00 0.00 61 1002.5
20260504185827 23 256 9.7 24.1 0.00 0.00 0.00 60 1002.4
20260504185338 23 245 6.4 22.5 0.00 0.00 0.00 61 1002.6
20260504184828 23 228 11.3 29.0 0.00 0.00 0.00 62 1002.5
20260504184342 23 226 11.3 29.0 0.00 0.00 0.00 58 1002.7
20260504183817 23 236 11.3 25.7 0.00 0.00 0.00 62 1002.8
20260504183328 23 182 11.3 22.5 0.00 0.00 0.00 59 1002.9
20260504182822 23 228 9.7 22.5 0.00 0.00 0.00 59 1002.9
20260504182356 23 172 6.4 20.9 0.00 0.00 0.00 63 1002.8
20260504181826 22 237 9.7 29.0 0.00 0.00 0.00 61 1002.8
20260504181317 22 64 11.3 29.0 0.00 0.00 0.00 61 1003.1
20260504180829 22 244 11.3 27.4 0.00 0.00 0.00 62 1003.1
20260504180325 23 170 9.7 17.7 0.00 0.00 0.00 61 1003.1
20260504175819 22 256 6.4 17.7 0.00 0.00 0.00 65 1003.1
20260504175337 22 226 8.0 20.9 0.00 0.00 0.00 63 1003.2
20260504174830 22 282 8.0 20.9 0.00 0.00 0.00 63 1003.3
20260504174321 21 252 4.8 27.4 0.00 0.00 0.00 65 1003.4
20260504173833 21 206 6.4 27.4 0.00 0.00 0.00 62 1003.5
20260504173324 22 250 9.7 17.7 0.00 0.00 0.00 60 1003.5
20260504172835 22 253 6.4 16.1 0.00 0.00 0.00 66 1003.5
20260504172326 22 282 6.4 16.1 0.00 0.00 0.00 63 1003.5
20260504171816 22 247 8.0 19.3 0.00 0.00 0.00 63 1003.7
20260504171330 22 249 9.7 19.3 0.00 0.00 0.00 63 1003.7
20260504170826 21 242 6.4 20.9 0.00 0.00 0.00 63 1003.8
20260504170317 21 262 6.4 24.1 0.00 0.00 0.00 63 1003.9
20260504160343 21 224 6.4 19.3 0.00 0.00 0.00 59 1004.7
20260504150843 19 260 8.0 14.5 0.00 0.00 0.00 65 1005.3
20260504150316 18 239 4.8 14.5 0.00 0.00 0.00 67 1005.3
20260504141322 17 233 4.8 14.5 0.00 0.00 0.00 71 1005.8
20260504140817 16 268 3.2 14.5 0.00 0.00 0.00 72 1005.8
20260504140348 16 244 4.8 14.5 0.00 0.00 0.00 71 1005.8
20260504130817 14 291 3.2 9.7 0.00 0.00 0.00 76 1006.1
20260504130328 13 250 4.8 12.9 0.00 0.00 0.00 76 1006.1
20260504120317 11 265 3.2 8.0 0.00 0.00 0.00 79 1006.3
20260504110329 10 234 3.2 14.5 0.00 0.00 0.00 81 1006.4
20260504100327 10 239 3.2 11.3 0.00 0.00 0.00 80 1006.2
20260504081833 9 239 1.6 6.4 0.00 0.00 0.00 83 1006.3
20260504081324 9 328 1.6 6.4 0.00 0.00 0.00 83 1006.4
20260504080836 9 183 1.6 6.4 0.00 0.00 0.00 82 1006.5
20260504080327 9 71 1.6 6.4 0.00 0.00 0.00 83 1006.6
20260504070334 9 245 0.0 4.8 0.00 0.00 0.00 83 1007.4
20260504050357 9 125 1.6 3.2 0.00 0.00 0.00 84 1008.8
20260504045831 9 120 1.6 1.6 0.00 0.00 0.00 84 1008.9
20260504045321 9 125 0.0 3.2 0.00 0.00 0.00 84 1008.8
20260504044815 9 148 0.0 4.8 0.00 0.00 0.00 84 1008.9
20260504044329 9 150 1.6 4.8 0.00 0.00 0.00 84 1008.9
20260504043843 9 132 0.0 4.8 0.00 0.00 0.00 84 1008.9
20260504043335 9 119 0.0 4.8 0.00 0.00 0.00 84 1008.9
20260504042827 9 138 1.6 4.8 0.00 0.00 0.00 84 1008.8
20260504042318 9 41 1.6 4.8 0.00 0.00 0.00 85 1008.8
20260504041849 9 108 1.6 4.8 0.00 0.00 0.00 85 1008.8
20260504041325 9 171 0.0 4.8 0.00 0.00 0.00 85 1008.8
20260504040818 8 167 1.6 4.8 0.00 0.00 0.00 85 1008.8
20260504040328 8 143 1.6 4.8 0.00 0.00 0.00 85 1008.9
20260504035819 8 151 0.0 4.8 0.00 0.00 0.00 85 1008.9
20260504035330 8 240 1.6 4.8 0.00 0.00 0.00 85 1009.0
20260504034821 8 139 0.0 3.2 0.00 0.00 0.00 85 1009.1
20260504034336 9 147 1.6 3.2 0.00 0.00 0.00 85 1009.2
20260504033849 9 156 0.0 3.2 0.00 0.00 0.00 84 1009.2
20260504033322 9 141 1.6 4.8 0.00 0.00 0.00 85 1009.2
20260504032837 9 121 1.6 6.4 0.00 0.00 0.00 85 1009.2
20260504032347 9 157 1.6 6.4 0.00 0.00 0.00 85 1009.3
20260504031817 9 157 1.6 4.8 0.00 0.00 0.00 85 1009.4
20260504031329 9 114 1.6 8.0 0.00 0.00 0.00 84 1009.4
20260504030820 9 145 1.6 8.0 0.00 0.00 0.00 84 1009.4
20260504030351 9 182 3.2 8.0 0.00 0.00 0.00 85 1009.4
20260504025820 9 172 1.6 6.4 0.00 0.00 0.00 84 1009.4
20260504025331 9 141 1.6 4.8 0.00 0.00 0.00 85 1009.4
20260504024822 9 184 3.2 4.8 0.00 0.00 0.00 85 1009.5
20260504024333 9 154 1.6 6.4 0.00 0.00 0.00 85 1009.5
20260504023830 9 162 3.2 6.4 0.00 0.00 0.00 85 1009.5
20260504023320 9 158 3.2 4.8 0.00 0.00 0.00 85 1009.5
20260504022851 9 149 1.6 4.8 0.00 0.00 0.00 85 1009.5
20260504022321 9 195 1.6 4.8 0.00 0.00 0.00 85 1009.5
20260504021832 9 113 0.0 6.4 0.00 0.00 0.00 84 1009.5
20260504021323 9 162 1.6 6.4 0.00 0.00 0.00 84 1009.5
20260504020837 9 137 3.2 6.4 0.00 0.00 0.00 84 1009.5
20260504020329 9 174 3.2 6.4 0.00 0.00 0.00 84 1009.5
20260504015820 9 157 1.6 6.4 0.00 0.00 0.00 84 1009.5
20260504015331 9 156 3.2 6.4 0.00 0.00 0.00 84 1009.5
20260504014826 9 165 3.2 4.8 0.00 0.00 0.00 84 1009.5
20260504014317 10 133 1.6 4.8 0.00 0.00 0.00 84 1009.5
20260504013830 10 154 1.6 4.8 0.00 0.00 0.00 84 1009.6
20260504013320 10 162 1.6 6.4 0.00 0.00 0.00 84 1009.6
20260504012830 10 158 3.2 6.4 0.00 0.00 0.00 83 1009.6
20260504012324 10 164 3.2 6.4 0.00 0.00 0.00 83 1009.6
20260504011818 10 120 3.2 8.0 0.00 0.00 0.00 83 1009.6
20260504011332 10 158 3.2 8.0 0.00 0.00 0.00 83 1009.6
20260504010828 10 135 3.2 6.4 0.00 0.00 0.00 83 1009.5